TRITON-1

Last updated on Mon Nov 03 2025 00:04:05 GMT+0000 (Coordinated Universal Time)

1 39427U 13066M 25306.48971626 .00003565 00000+0 44482-3 0 9993 2 39427 97.8291 216.5761 0090901 252.4119 106.7148 14.80136271640532
UTC large
Height (km)
Speed (km/s)
/
Latitude / Longitude
Inclination (degrees)
Orbital Period (minutes)
Azimuth
Elevation
Range (km)
Doppler Factor

Next 0 passes for location: London (51.5072 / 0.1276)

Sorry there are no passes over London.